Location: Gerlach
(40.6516°N, 119.3568°W)
Time: 15:31:05
(UTC-07:00)

A-11 Canister half - Pass Details

Date: 25 February 2024
Orbit: 1525 x 1683 km, 47.3° (Epoch: 21 April)

Event Time Altitude Azimuth Distance (km) Brightness Sun altitude
Exits shadow 03:03:45 33° 142° (SE) 2,372 9.9 -40.5°
Drops below altitude 10° 03:08:16 10° 134° (SE) 3,726 11.2 -39.7°
Sets 03:11:22 0° 133° (SE) 4,724 11.8 -39.2°
